Back to catalog

FENGYUN 1C DEB

AlivePO
NORAD 37067·DEBRIS·🇨🇳 China

Launched May 10, 1999 from Taiyuan Satellite Launch Center

Loading…

Next Passes (next 24 hours)

TLE

FreshSource: Space-Track

Epoch: Sep 12, 2026, 14:24 UTC

1 37067U 99025EFB 26255.60062669  .00006603  00000-0  38711-2 0  9990
2 37067  99.5033 214.5954 0139357  79.6687 282.0155 14.03779549612477

Track FENGYUN 1C DEB in real time with AllMySat

Download on the App Store